Tracking 30995 objects as of 5-Jul-2025
HD Live streaming from Space Station
objects crossing your sky now

ARIANE 3 DEB

Track ARIANE 3 DEB now!


NORAD ID: 26807
Int'l Code: 1988-081H
Perigee: 1,027.8 km
Apogee: 36,577.5 km
Inclination: 6.1 °
Period: 662.5 minutes
Semi major axis: 25173 km
RCS: 0.4361 m2 (medium)
Launch date: September 8, 1988
Source: France (FR)
Launch site: FRENCH GUIANA (FRGUI)

Note: This is SATELLITE DEBRIS
Your satellite tracking list
STARLINK-30095
Track 1 satellite(s)




NASA's NSSDC Master Catalog

Two Line Element Set (TLE):
1 26807U 88081H   25180.60829656 -.00000154  00000-0  00000-0 0  9997
2 26807   6.1322  73.0993 7060911 192.9000  18.7598  2.17362350204930
Source of the keplerian elements: AFSPC